Wooster, OH

1:30 AM EST on December 16, 2019 (GMT -0500)
Wayne County

Weather History for KBJJ - October, 2019

Change the Weather History Date:

Sunday, October 20, 2019

  Actual Average Record
Temperature  
Mean Temperature 54 °F -  
Max Temperature 72 °F 58 °F 73 °F (2017)
Min Temperature 37 °F 36 °F 28 °F (1997)
Degree Days  
Heating Degree Days 10    
Growing Degree Days 4 (Base 50)    
Moisture  
Dew Point 45 °F    
Average Humidity 77    
Maximum Humidity 97    
Minimum Humidity 45    
Precipitation  
Precipitation 0.00 in - - ()
Sea Level Pressure  
Sea Level Pressure 29.91 in    
Wind  
Wind Speed 1 mph (ESE)    
Max Wind Speed 7 mph    
Max Gust Speed -    
Visibility 10 miles    
Events      
Averages and records for this station are not official NWS values.
T = Trace of Precipitation, MM = Missing Value Source: NWS Daily Summary

Daily Weather History Graph

Daily Weather History Graph

Search for Another Location

Airport or City:

Astronomy

Oct. 20, 2019 Rise Set
Actual Time 7:44 AM EDT 6:39 PM EDT
Civil Twilight 7:16 AM EDT 7:07 PM EDT
Nautical Twilight 6:44 AM EDT 7:39 PM EDT
Astronomical Twilight 6:12 AM EDT 8:11 PM EDT
Moon 11:45 PM EDT (10/20) 2:12 PM EDT (10/20)
Length of Visible Light 11h 51m
Length of Day
10h 55m
Waning Gibbous, 59% of the Moon is Illuminated
Oct 20
Waning Gibbous
Oct 21
Last Quarter
Oct 27
New
Nov 4
First Quarter
Nov 12
Full

Hourly Weather History & Observations

Time (EDT) Temp. Windchill Dew Point Humidity Pressure Visibility Wind Dir Wind Speed Gust Speed Precip Events Conditions
12:56 AM 39.9 °F - 37.9 °F 93% 29.88 in 10.0 mi Calm Calm - N/A   Clear
1:56 AM 39.0 °F - 37.0 °F 93% 29.88 in 9.0 mi Calm Calm - N/A   Clear
2:56 AM 37.9 °F - 37.0 °F 97% 29.86 in 8.0 mi Calm Calm - N/A   Clear
3:56 AM 39.0 °F - 37.9 °F 96% 29.86 in 8.0 mi Calm Calm - N/A   Clear
4:56 AM 39.9 °F 37.8 °F 39.0 °F 97% 29.85 in 8.0 mi SE 3.5 mph - N/A   Clear
5:56 AM 41.0 °F - 39.9 °F 96% 29.86 in 9.0 mi Calm Calm - N/A   Clear
6:56 AM 42.1 °F - 41.0 °F 96% 29.88 in 10.0 mi Calm Calm - N/A   Clear
7:56 AM 43.0 °F - 41.0 °F 93% 29.88 in 8.0 mi Calm Calm - N/A   Clear
8:56 AM 46.0 °F 44.8 °F 44.1 °F 93% 29.91 in 8.0 mi SE 3.5 mph - N/A   Clear
9:56 AM 54.0 °F - 48.0 °F 80% 29.91 in 10.0 mi South 4.6 mph - N/A   Clear
10:56 AM 59.0 °F - 45.0 °F 60% 29.91 in 10.0 mi SSW 5.8 mph - N/A   Clear
11:56 AM 64.0 °F - 48.0 °F 56% 29.91 in 10.0 mi Variable 3.5 mph - N/A   Clear
12:56 PM 66.0 °F - 48.0 °F 52% 29.91 in 10.0 mi Variable 3.5 mph - N/A   Clear
1:56 PM 69.1 °F - 48.0 °F 47% 29.91 in 10.0 mi Variable 3.5 mph - N/A   Partly Cloudy
2:56 PM 71.1 °F - 48.9 °F 45% 29.89 in 10.0 mi Calm Calm - N/A   Clear
3:56 PM 72.0 °F - 50.0 °F 46% 29.90 in 10.0 mi Calm Calm - N/A   Mostly Cloudy
4:56 PM 71.1 °F - 50.0 °F 47% 29.91 in 10.0 mi NE 5.8 mph - N/A   Scattered Clouds
5:56 PM 69.1 °F - 51.1 °F 53% 29.91 in 10.0 mi ENE 3.5 mph - N/A   Clear
6:56 PM 61.0 °F - 53.1 °F 75% 29.93 in 10.0 mi Calm Calm - N/A   Overcast
7:56 PM 61.0 °F - 51.1 °F 70% 29.95 in 10.0 mi North 6.9 mph - N/A   Mostly Cloudy
8:56 PM 53.1 °F - 48.9 °F 86% 29.97 in 10.0 mi Calm Calm - N/A   Clear
9:56 PM 50.0 °F - 48.0 °F 93% 29.99 in 10.0 mi Calm Calm - N/A   Scattered Clouds
10:56 PM 48.9 °F - 46.9 °F 93% 30.00 in 10.0 mi Calm Calm - N/A   Mostly Cloudy
11:56 PM 48.0 °F - 46.0 °F 93% 30.00 in 9.0 mi Calm Calm - N/A   Mostly Cloudy